User: anonymous   Login
Location: Unspecified
(0.0000°N, 0.0000°E)
Time: 06:49:53
(UTC+00:00)
Language:

MAKERSAT-0 - Orbit

View from above orbital plane
View from above orbital plane
View from above satellite
View from above satellite

Ground track
Ground track

The orbit is defined by the following mean orbital elements,

1 43016U          26145.57540126 +.00000000 +00000-0 +65044-3 0 00007
2 43016  97.4664  27.9306 0109084 354.6160   5.3898 15.31057034    08
Epoch (UTC): 25 May 2026 13:48:34
Eccentricity: 0.0109084
inclination: 97.4664°
perigee height: 398 km
apogee height: 547 km
right ascension of ascending node: 27.9306°
argument of perigee: 354.6160°
revolutions per day: 15.31057034
mean anomaly at epoch: 5.3898°

The dashed part of the orbit path shows where the satellite is in the earth's shadow,  

DLR